Regional Weather Roundup
Issued by NWS

Home | Current Version | Previous Version | Graphics & Text | Print | Product List | Glossary On
Versions: 1 2 3 4 5 6 7 8 9 10 11 12 13 14 15 16 17 18 19 20 21 22 23 24 25 26 27 28 29 30 31 32 33 34 35 36 37 38 39 40 41 42 43 44 45 46 47 48 49 50
000
ASUS43 KOAX 192110
RWRNE

WEATHER ROUNDUP FOR NEBRASKA
NATIONAL WEATHER SERVICE OMAHA NE
400 PM CDT SAT AUG 19 2017

NOTES: SATELLITE DATA IS BEING USED TO AUGMENT CLOUD COVER ABOVE
       12000 FEET.
       "FAIR" INDICATES FEW OR NO CLOUDS BELOW 12,000 FEET WITH NO
       SIGNIFICANT WEATHER AND/OR OBSTRUCTIONS TO VISIBILITY.


NEZ001>004-019>022-054>056-192200-
NEBRASKA PANHANDLE

CITY           SKY/WX    TMP DP  RH WIND       PRES   REMARKS
SCOTTSBLUFF    SUNNY     95  33  11 W12       29.93S HX  90
ALLIANCE       SUNNY     91  43  18 NW13      29.91S
CHADRON        SUNNY     96  34  11 E6        29.86F HX  91
GORDON         FAIR      92  41  17 CALM      29.88F
KIMBALL        SUNNY     92  42  17 NW15G22   30.00F
SIDNEY         SUNNY     98  36  11 NW14G22   29.95F HX  93
$$

NEZ057>060-069>072-079>082-192200-
SOUTHWEST NEBRASKA

CITY           SKY/WX    TMP DP  RH WIND       PRES   REMARKS
NORTH PLATTE   SUNNY     93  67  42 S14G26    29.86F HX  96
IMPERIAL       SUNNY     96  59  29 S13       29.88F HX  95
LEXINGTON      SUNNY     90  71  53 S14G20    29.88F HX  96
MCCOOK         SUNNY     95  62  33 S17G23    29.86F HX  96
OGALLALA       CLOUDY    90  65  44 S6        29.88F HX  92
$$

NEZ005>010-023>029-035>040-094-192200-
NORTH CENTRAL NEBRASKA

CITY           SKY/WX    TMP DP  RH WIND       PRES   REMARKS
VALENTINE      SUNNY     96  54  24 SW9       29.80F HX  94
AINSWORTH      SUNNY     91  67  46 S16       29.82F HX  94
BROKEN BOW     SUNNY     91  68  46 S12G22    29.87F HX  95
O`NEILL        SUNNY     84  68  58 S18       29.86F
ORD            SUNNY     87  66  49 S16G25    29.85F
THEDFORD       SUNNY     95  63  34 W17G29    29.86S HX  96
$$

NEZ041-046>049-061>064-073>077-083>087-192200-
SOUTH CENTRAL NEBRASKA

CITY           SKY/WX    TMP DP  RH WIND       PRES   REMARKS
GRAND ISLAND   SUNNY     86  74  67 SE12      29.89F HX  94
AURORA         SUNNY     84  69  60 SE15      29.89F
HASTINGS       SUNNY     88  68  51 SE15G22   29.90F HX  91
HEBRON         SUNNY     92  65  41 S8G16     29.90F HX  94
HOLDREGE       SUNNY     88  67  48 S13G21    29.89F HX  91
KEARNEY        SUNNY     88  71  57 S15       29.89F HX  94
YORK           SUNNY     84  68  58 S12G17    29.90F
$$

NEZ011>018-030>034-042>045-192200-
NORTHEAST NEBRASKA

CITY           SKY/WX    TMP DP  RH WIND       PRES   REMARKS
NORFOLK        SUNNY     83  65  54 S15       29.88F
ALBION         SUNNY     83  70  65 SE15G22   29.89F
BLAIR          SUNNY     85  64  48 SE6       29.92F
COLUMBUS       SUNNY     83  66  56 SE12G17   29.90F
FREMONT        SUNNY     84  62  47 SE8       29.92F
TEKAMAH        SUNNY     83  61  47 S8        29.91F
WAYNE          SUNNY     80  67  64 SE14      29.90F
$$

NEZ050>053-065>068-078-088>093-192200-
SOUTHEAST NEBRASKA

CITY           SKY/WX    TMP DP  RH WIND       PRES   REMARKS
LINCOLN        SUNNY     85  64  49 SE13      29.91F
OMAHA EPPLEY   SUNNY     87  59  38 S8        29.91F
BEATRICE       SUNNY     93  64  37 E8        29.90F HX  95
FALLS CITY     SUNNY     88  65  46 E9        29.91F HX  90
NEBRASKA CITY  SUNNY     86  61  42 SE8       29.94S
PLATTSMOUTH    SUNNY     85  59  41 SE6       29.93S
$$

NEZ044-045-051>053-067-192200-
OMAHA AREA

CITY           SKY/WX    TMP DP  RH WIND       PRES   REMARKS
OMAHA EPPLEY   SUNNY     87  59  38 S8        29.91F
BLAIR          SUNNY     85  64  48 SE6       29.92F
FREMONT        SUNNY     84  62  47 SE8       29.92F
MILLARD        SUNNY     87  61  41 SE8       29.92F
OFFUTT AFB     SUNNY     87  55  32 SE6       29.91F
PLATTSMOUTH    SUNNY     85  59  41 SE6       29.93S
WAHOO          FAIR      84  65  53 SE9       29.92F
$$



USA.gov is the U.S. government's official web portal to all federal, state and local government web resources and services.